Time,TemperatureF,DewpointF,PressureIn,WindDirection,WindDirectionDegrees,WindSpeedMPH,WindSpeedGustMPH,Humidity,HourlyPrecipIn,Conditions,Clouds,dailyrainin,SoftwareType,DateUTC
2013-05-10 00:01:00,64.5,62.1,29.92,NNE,25,8.1,8.1,92,0.01,RA,,0.01,WeatherDisplay:10.37,2013-05-10 05:01:00,
2013-05-10 00:06:00,63.9,61.8,29.91,NE,39,12.0,12.0,93,0.01,RA,,0.01,WeatherDisplay:10.37,2013-05-10 05:06:00,
2013-05-10 00:11:00,63.7,61.6,29.91,ENE,74,8.1,8.1,93,0.01,,,0.01,WeatherDisplay:10.37,2013-05-10 05:11:00,
2013-05-10 00:16:00,63.6,61.5,29.90,NE,36,9.2,9.2,93,0.01,CLR,,0.01,WeatherDisplay:10.37,2013-05-10 05:16:00,
2013-05-10 00:21:00,63.6,61.8,29.90,ENE,58,8.1,8.1,94,0.01,CLR,,0.01,WeatherDisplay:10.37,2013-05-10 05:21:00,
2013-05-10 00:26:00,63.6,61.8,29.90,ESE,108,8.0,8.0,94,0.01,CLR,,0.01,WeatherDisplay:10.37,2013-05-10 05:26:00,
2013-05-10 00:31:00,63.6,61.8,29.89,ENE,74,8.1,8.1,94,0.01,CLR,,0.01,WeatherDisplay:10.37,2013-05-10 05:31:00,
2013-05-10 00:36:00,63.5,61.7,29.89,ENE,77,6.9,6.9,94,0.01,CLR,,0.01,WeatherDisplay:10.37,2013-05-10 05:36:00,
2013-05-10 00:41:00,63.4,61.6,29.89,East,84,9.2,9.2,94,0.01,CLR,,0.01,WeatherDisplay:10.37,2013-05-10 05:41:00,
2013-05-10 00:46:00,63.3,61.5,29.88,East,87,8.1,8.1,94,0.01,CLR,,0.01,WeatherDisplay:10.37,2013-05-10 05:46:00,
2013-05-10 00:51:00,63.3,61.5,29.89,East,93,6.0,6.0,94,0.01,CLR,,0.01,WeatherDisplay:10.37,2013-05-10 05:51:00,
2013-05-10 00:56:00,63.3,61.5,29.88,East,94,9.2,9.2,94,0.03,CLR,,0.01,WeatherDisplay:10.37,2013-05-10 05:56:00,
2013-05-10 01:01:00,63.2,61.4,29.89,ENE,72,5.8,5.8,94,0.00,CLR,,0.01,WeatherDisplay:10.37,2013-05-10 06:01:00,
2013-05-10 01:06:00,63.2,61.4,29.88,East,80,8.1,8.1,94,0.00,CLR,,0.01,WeatherDisplay:10.37,2013-05-10 06:06:00,
2013-05-10 01:11:00,63.3,61.5,29.89,East,90,5.0,5.0,94,0.00,CLR,,0.01,WeatherDisplay:10.37,2013-05-10 06:11:00,
2013-05-10 01:16:00,63.3,61.5,29.88,ENE,67,5.8,5.8,94,0.00,CLR,,0.01,WeatherDisplay:10.37,2013-05-10 06:16:00,
2013-05-10 01:21:00,63.3,61.5,29.88,East,93,5.8,5.8,94,0.00,CLR,,0.01,WeatherDisplay:10.37,2013-05-10 06:21:00,
2013-05-10 01:26:00,63.3,61.5,29.88,East,81,4.0,4.0,94,0.00,CLR,,0.01,WeatherDisplay:10.37,2013-05-10 06:26:00,
2013-05-10 01:31:00,63.3,61.5,29.88,SE,135,5.8,5.8,94,0.00,CLR,,0.01,WeatherDisplay:10.37,2013-05-10 06:31:00,
2013-05-10 01:36:00,63.2,61.4,29.88,SSE,150,3.5,3.5,94,0.00,CLR,,0.01,WeatherDisplay:10.37,2013-05-10 06:36:00,
2013-05-10 01:41:00,63.1,61.6,29.88,East,95,3.5,3.5,95,0.00,CLR,,0.01,WeatherDisplay:10.37,2013-05-10 06:41:00,
2013-05-10 01:46:00,63.1,61.6,29.87,SE,131,3.5,3.5,95,0.00,CLR,,0.01,WeatherDisplay:10.37,2013-05-10 06:46:00,
2013-05-10 01:51:00,63.1,61.6,29.87,SE,141,1.1,1.1,95,0.00,CLR,,0.01,WeatherDisplay:10.37,2013-05-10 06:51:00,
2013-05-10 01:56:00,63.1,61.6,29.87,East,99,4.6,4.6,95,0.00,CLR,,0.01,WeatherDisplay:10.37,2013-05-10 06:56:00,
2013-05-10 02:01:00,63.1,61.6,29.86,East,81,2.3,2.3,95,0.00,CLR,,0.01,WeatherDisplay:10.37,2013-05-10 07:01:00,
2013-05-10 02:06:00,63.2,61.7,29.87,East,83,5.0,5.0,95,0.01,RA,,0.02,WeatherDisplay:10.37,2013-05-10 07:06:00,
2013-05-10 02:11:00,63.2,61.7,29.87,ESE,117,3.5,3.5,95,0.01,RA,,0.02,WeatherDisplay:10.37,2013-05-10 07:11:00,
2013-05-10 02:16:00,63.2,61.7,29.87,SE,138,4.6,4.6,95,0.01,CLR,,0.02,WeatherDisplay:10.37,2013-05-10 07:16:00,
2013-05-10 02:21:00,63.2,61.7,29.86,SE,143,5.8,5.8,95,0.01,CLR,,0.02,WeatherDisplay:10.37,2013-05-10 07:21:00,
2013-05-10 02:26:00,63.3,61.8,29.85,SSE,154,3.5,3.5,95,0.01,CLR,,0.02,WeatherDisplay:10.37,2013-05-10 07:26:00,
2013-05-10 02:31:00,63.4,61.9,29.85,SSW,207,5.0,5.0,95,0.01,CLR,,0.02,WeatherDisplay:10.37,2013-05-10 07:31:00,
2013-05-10 02:36:00,63.5,62.0,29.85,SSE,164,5.8,5.8,95,0.01,CLR,,0.02,WeatherDisplay:10.37,2013-05-10 07:36:00,
2013-05-10 02:41:00,63.5,62.0,29.85,SSE,168,1.1,0.0,95,0.01,CLR,,0.02,WeatherDisplay:10.37,2013-05-10 07:41:00,
2013-05-10 02:46:00,63.6,62.1,29.85,SE,140,3.5,3.5,95,0.01,CLR,,0.02,WeatherDisplay:10.37,2013-05-10 07:46:00,
2013-05-10 02:51:00,63.6,62.1,29.84,SE,130,3.5,3.5,95,0.01,CLR,,0.02,WeatherDisplay:10.37,2013-05-10 07:51:00,
2013-05-10 02:56:00,63.7,62.2,29.84,SE,136,3.5,3.5,95,0.01,CLR,,0.02,WeatherDisplay:10.37,2013-05-10 07:56:00,
2013-05-10 03:01:00,63.7,62.2,29.84,SE,130,3.5,3.5,95,0.01,CLR,,0.02,WeatherDisplay:10.37,2013-05-10 08:01:00,
2013-05-10 03:06:00,63.7,62.2,29.83,ESE,122,2.3,2.3,95,0.00,CLR,,0.02,WeatherDisplay:10.37,2013-05-10 08:06:00,
2013-05-10 03:11:00,63.8,62.3,29.84,SE,146,2.3,2.3,95,0.00,CLR,,0.02,WeatherDisplay:10.37,2013-05-10 08:11:00,
2013-05-10 03:16:00,63.7,62.2,29.83,SE,146,0.0,0.0,95,0.00,CLR,,0.02,WeatherDisplay:10.37,2013-05-10 08:16:00,
2013-05-10 03:21:00,63.7,62.2,29.83,South,183,0.0,0.0,95,0.00,CLR,,0.02,WeatherDisplay:10.37,2013-05-10 08:21:00,
2013-05-10 03:26:00,63.8,62.3,29.83,North,360,2.3,2.3,95,0.00,CLR,,0.02,WeatherDisplay:10.37,2013-05-10 08:26:00,
2013-05-10 03:31:00,63.9,62.4,29.83,NNW,347,0.0,0.0,95,0.00,CLR,,0.02,WeatherDisplay:10.37,2013-05-10 08:31:00,
2013-05-10 03:36:00,64.0,62.5,29.83,NW,305,1.1,1.1,95,0.00,CLR,,0.02,WeatherDisplay:10.37,2013-05-10 08:36:00,
2013-05-10 03:41:00,64.1,62.6,29.83,West,276,1.1,1.1,95,0.00,CLR,,0.02,WeatherDisplay:10.37,2013-05-10 08:41:00,
2013-05-10 03:46:00,64.1,62.6,29.82,West,281,2.3,2.3,95,0.00,CLR,,0.02,WeatherDisplay:10.37,2013-05-10 08:46:00,
2013-05-10 03:51:00,64.1,62.6,29.82,West,278,3.5,3.5,95,0.00,CLR,,0.02,WeatherDisplay:10.37,2013-05-10 08:51:00,
2013-05-10 03:56:00,64.1,62.6,29.82,WNW,285,2.3,2.3,95,0.00,CLR,,0.02,WeatherDisplay:10.37,2013-05-10 08:56:00,
2013-05-10 04:01:00,64.2,62.7,29.82,WNW,285,1.1,1.2,95,0.00,CLR,,0.02,WeatherDisplay:10.37,2013-05-10 09:01:00,
2013-05-10 04:06:00,64.3,62.8,29.82,NW,307,3.5,3.5,95,0.00,CLR,,0.02,WeatherDisplay:10.37,2013-05-10 09:06:00,
2013-05-10 04:11:00,64.4,62.9,29.82,West,279,4.0,4.0,95,0.00,CLR,,0.02,WeatherDisplay:10.37,2013-05-10 09:11:00,
2013-05-10 04:16:00,64.5,63.0,29.82,West,259,3.5,3.5,95,0.00,CLR,,0.02,WeatherDisplay:10.37,2013-05-10 09:16:00,
2013-05-10 04:21:00,64.6,63.1,29.82,West,262,3.5,3.5,95,0.00,CLR,,0.02,WeatherDisplay:10.37,2013-05-10 09:21:00,
2013-05-10 04:26:00,64.6,63.1,29.82,WNW,283,2.3,2.3,95,0.00,CLR,,0.02,WeatherDisplay:10.37,2013-05-10 09:26:00,
2013-05-10 04:31:00,64.7,63.2,29.81,ENE,68,2.3,2.3,95,0.00,CLR,,0.02,WeatherDisplay:10.37,2013-05-10 09:31:00,
2013-05-10 04:36:00,64.9,63.4,29.80,NNE,25,3.5,3.5,95,0.00,CLR,,0.02,WeatherDisplay:10.37,2013-05-10 09:36:00,
2013-05-10 04:41:00,65.0,63.5,29.82,WSW,249,2.3,2.3,95,0.00,CLR,,0.02,WeatherDisplay:10.37,2013-05-10 09:41:00,
2013-05-10 04:46:00,65.2,63.7,29.82,WSW,253,3.5,3.5,95,0.00,CLR,,0.02,WeatherDisplay:10.37,2013-05-10 09:46:00,
2013-05-10 04:51:00,65.2,63.7,29.81,WSW,255,0.0,0.0,95,0.00,CLR,,0.02,WeatherDisplay:10.37,2013-05-10 09:51:00,
2013-05-10 04:56:00,65.4,63.9,29.81,WNW,291,3.5,3.5,95,0.00,CLR,,0.02,WeatherDisplay:10.37,2013-05-10 09:56:00,
2013-05-10 05:01:00,65.5,64.0,29.81,WNW,301,3.5,3.5,95,0.00,CLR,,0.02,WeatherDisplay:10.37,2013-05-10 10:01:00,
2013-05-10 05:06:00,65.7,64.2,29.81,NNW,335,2.3,2.3,95,0.00,CLR,,0.02,WeatherDisplay:10.37,2013-05-10 10:06:00,
2013-05-10 05:11:00,65.7,64.2,29.80,NW,326,2.3,2.3,95,0.00,CLR,,0.02,WeatherDisplay:10.37,2013-05-10 10:11:00,
2013-05-10 05:16:00,65.6,64.1,29.80,NNW,347,1.1,1.1,95,0.00,CLR,,0.02,WeatherDisplay:10.37,2013-05-10 10:16:00,
2013-05-10 05:21:00,66.1,64.6,29.80,NNW,347,0.0,0.0,95,0.00,CLR,,0.02,WeatherDisplay:10.37,2013-05-10 10:21:00,
2013-05-10 05:26:00,66.0,64.5,29.81,WNW,300,3.5,3.5,95,0.00,CLR,,0.02,WeatherDisplay:10.37,2013-05-10 10:26:00,
2013-05-10 05:31:00,65.9,64.4,29.81,NNW,342,1.1,0.0,95,0.00,CLR,,0.02,WeatherDisplay:10.37,2013-05-10 10:31:00,
2013-05-10 05:36:00,65.9,64.4,29.81,WNW,288,2.0,2.0,95,0.00,CLR,,0.02,WeatherDisplay:10.37,2013-05-10 10:36:00,
2013-05-10 05:41:00,65.9,64.4,29.82,NW,318,1.1,0.0,95,0.00,CLR,,0.02,WeatherDisplay:10.37,2013-05-10 10:41:00,
2013-05-10 05:46:00,66.1,64.6,29.81,NW,316,2.3,0.0,95,0.00,CLR,,0.02,WeatherDisplay:10.37,2013-05-10 10:46:00,
2013-05-10 05:51:00,66.0,64.5,29.83,NNW,345,1.1,1.2,95,0.00,CLR,,0.02,WeatherDisplay:10.37,2013-05-10 10:51:00,
2013-05-10 05:56:00,66.1,64.6,29.83,WNW,285,6.9,6.9,95,0.00,CLR,,0.02,WeatherDisplay:10.37,2013-05-10 10:56:00,
2013-05-10 06:01:00,66.2,64.7,29.86,NW,308,9.2,9.2,95,0.00,CLR,,0.02,WeatherDisplay:10.37,2013-05-10 11:01:00,
2013-05-10 06:06:00,66.1,64.6,29.86,WNW,296,11.5,11.5,95,0.00,CLR,,0.02,WeatherDisplay:10.37,2013-05-10 11:06:00,
2013-05-10 06:11:00,66.3,64.8,29.87,NW,314,8.1,8.1,95,0.00,CLR,,0.02,WeatherDisplay:10.37,2013-05-10 11:11:00,
2013-05-10 06:16:00,66.5,65.0,29.88,NW,326,9.2,9.2,95,0.00,CLR,,0.02,WeatherDisplay:10.37,2013-05-10 11:16:00,
2013-05-10 06:21:00,66.6,65.1,29.88,NW,322,4.6,4.6,95,0.00,CLR,,0.02,WeatherDisplay:10.37,2013-05-10 11:21:00,
2013-05-10 06:26:00,66.7,65.2,29.89,WNW,301,5.8,5.8,95,0.00,CLR,,0.03,WeatherDisplay:10.37,2013-05-10 11:26:00,
2013-05-10 06:31:00,66.7,65.2,29.89,NW,319,3.5,3.5,95,0.01,RA,,0.03,WeatherDisplay:10.37,2013-05-10 11:31:00,
2013-05-10 06:36:00,66.6,65.1,29.87,NNW,338,3.5,3.5,95,0.01,RA,,0.03,WeatherDisplay:10.37,2013-05-10 11:36:00,
2013-05-10 06:41:00,66.6,65.1,29.87,NNW,327,3.5,3.5,95,0.02,RA,,0.04,WeatherDisplay:10.37,2013-05-10 11:41:00,
2013-05-10 06:46:00,66.7,65.2,29.88,NNW,345,1.1,1.1,95,0.02,RA,,0.04,WeatherDisplay:10.37,2013-05-10 11:46:00,
2013-05-10 06:51:00,66.7,65.2,29.89,West,260,2.3,2.3,95,0.02,CLR,,0.04,WeatherDisplay:10.37,2013-05-10 11:51:00,
2013-05-10 06:56:00,66.7,65.2,29.88,North,355,3.5,3.5,95,0.02,CLR,,0.04,WeatherDisplay:10.37,2013-05-10 11:56:00,
2013-05-10 07:01:00,66.6,65.1,29.88,NNE,22,0.0,0.0,95,0.02,CLR,,0.04,WeatherDisplay:10.37,2013-05-10 12:01:00,
2013-05-10 07:06:00,66.6,65.1,29.87,North,357,2.3,2.3,95,0.02,CLR,,0.04,WeatherDisplay:10.37,2013-05-10 12:06:00,
2013-05-10 07:11:00,66.6,65.1,29.88,NNE,18,3.5,3.5,95,0.03,RA,,0.05,WeatherDisplay:10.37,2013-05-10 12:11:00,
2013-05-10 07:16:00,66.7,65.2,29.90,NW,309,1.1,1.1,95,0.03,RA,,0.05,WeatherDisplay:10.37,2013-05-10 12:16:00,
2013-05-10 07:21:00,66.7,65.2,29.91,WNW,288,3.5,3.5,95,0.03,,,0.05,WeatherDisplay:10.37,2013-05-10 12:21:00,
2013-05-10 07:26:00,66.7,64.9,29.94,WNW,283,6.9,6.9,94,0.03,CLR,,0.05,WeatherDisplay:10.37,2013-05-10 12:26:00,
2013-05-10 07:31:00,66.6,64.8,29.97,WNW,294,11.5,11.5,94,0.02,CLR,,0.05,WeatherDisplay:10.37,2013-05-10 12:31:00,
2013-05-10 07:36:00,66.1,63.4,29.94,NW,309,19.6,19.6,91,0.02,CLR,,0.05,WeatherDisplay:10.37,2013-05-10 12:36:00,
2013-05-10 07:41:00,65.1,61.5,29.93,NNW,339,26.5,26.5,88,0.02,RA,,0.06,WeatherDisplay:10.37,2013-05-10 12:41:00,
2013-05-10 07:46:00,64.1,60.8,29.93,NE,41,17.3,17.3,89,0.03,RA,,0.07,WeatherDisplay:10.37,2013-05-10 12:46:00,
2013-05-10 07:51:00,63.6,60.6,29.91,NE,36,18.4,18.4,90,0.03,RA,,0.07,WeatherDisplay:10.37,2013-05-10 12:51:00,
2013-05-10 07:56:00,63.5,60.8,29.91,North,349,19.6,19.6,91,0.03,CLR,,0.07,WeatherDisplay:10.37,2013-05-10 12:56:00,
2013-05-10 08:01:00,63.4,61.0,29.90,NNW,336,20.7,20.7,92,0.03,CLR,,0.07,WeatherDisplay:10.37,2013-05-10 13:01:00,
2013-05-10 08:06:00,63.7,61.3,29.90,WNW,293,15.0,15.0,92,0.03,CLR,,0.07,WeatherDisplay:10.37,2013-05-10 13:06:00,
2013-05-10 08:11:00,64.0,61.3,29.91,NW,304,19.6,19.6,91,0.02,CLR,,0.07,WeatherDisplay:10.37,2013-05-10 13:11:00,
2013-05-10 08:16:00,64.5,61.8,29.91,NW,312,19.0,19.0,91,0.02,CLR,,0.07,WeatherDisplay:10.37,2013-05-10 13:16:00,
2013-05-10 08:21:00,64.9,61.9,29.92,North,360,13.8,13.8,90,0.02,CLR,,0.07,WeatherDisplay:10.37,2013-05-10 13:21:00,
2013-05-10 08:26:00,65.3,62.0,29.93,West,281,6.9,6.9,89,0.02,CLR,,0.07,WeatherDisplay:10.37,2013-05-10 13:26:00,
2013-05-10 08:31:00,65.5,62.2,29.94,WNW,285,9.2,9.2,89,0.02,CLR,,0.07,WeatherDisplay:10.37,2013-05-10 13:31:00,
2013-05-10 08:36:00,65.6,61.9,29.98,WSW,252,9.2,9.2,88,0.02,CLR,,0.07,WeatherDisplay:10.37,2013-05-10 13:36:00,
2013-05-10 08:41:00,65.4,61.8,30.00,SW,217,19.6,19.6,88,0.01,CLR,,0.07,WeatherDisplay:10.37,2013-05-10 13:41:00,
2013-05-10 08:46:00,64.8,61.5,29.99,SW,236,18.4,18.4,89,0.01,RA,,0.08,WeatherDisplay:10.37,2013-05-10 13:46:00,
2013-05-10 08:51:00,64.7,61.7,29.95,North,9,7.0,7.0,90,0.05,RA,,0.12,WeatherDisplay:10.37,2013-05-10 13:51:00,
2013-05-10 08:56:00,64.5,61.5,29.88,NNE,19,17.3,17.3,90,0.10,RA,,0.18,WeatherDisplay:10.37,2013-05-10 13:56:00,
2013-05-10 09:01:00,64.1,61.4,29.84,North,349,19.6,19.6,91,0.12,RA,,0.20,WeatherDisplay:10.37,2013-05-10 14:01:00,
2013-05-10 09:07:00,64.2,61.5,29.86,ENE,64,8.1,8.1,91,0.13,RA,,0.20,WeatherDisplay:10.37,2013-05-10 14:07:00,
2013-05-10 09:12:00,64.5,61.5,29.86,North,352,8.1,8.1,90,0.13,,,0.20,WeatherDisplay:10.37,2013-05-10 14:12:00,
2013-05-10 09:18:00,65.0,62.3,29.87,NNE,13,10.4,10.4,91,0.13,CLR,,0.20,WeatherDisplay:10.37,2013-05-10 14:18:00,
2013-05-10 09:23:00,65.7,63.0,29.88,ENE,61,4.6,4.6,91,0.13,CLR,,0.20,WeatherDisplay:10.37,2013-05-10 14:23:00,
2013-05-10 09:28:00,66.9,63.9,29.88,North,359,8.1,8.1,90,0.13,CLR,,0.20,WeatherDisplay:10.37,2013-05-10 14:28:00,
2013-05-10 09:33:00,67.5,63.5,29.88,NE,36,11.5,11.5,87,0.13,CLR,,0.20,WeatherDisplay:10.37,2013-05-10 14:33:00,
2013-05-10 09:38:00,67.8,63.5,29.89,ENE,75,4.6,4.6,86,0.13,CLR,,0.20,WeatherDisplay:10.37,2013-05-10 14:38:00,
2013-05-10 09:43:00,68.3,63.9,29.89,NNE,30,6.0,6.0,86,0.13,CLR,,0.20,WeatherDisplay:10.37,2013-05-10 14:43:00,
2013-05-10 09:48:00,68.8,64.1,29.90,ENE,70,6.9,6.9,85,0.11,CLR,,0.20,WeatherDisplay:10.37,2013-05-10 14:48:00,
2013-05-10 09:53:00,69.2,64.2,29.90,NE,47,5.8,5.8,84,0.07,CLR,,0.20,WeatherDisplay:10.37,2013-05-10 14:53:00,
2013-05-10 09:58:00,69.4,64.4,29.90,ENE,59,2.3,2.3,84,0.01,CLR,,0.20,WeatherDisplay:10.37,2013-05-10 14:58:00,
2013-05-10 10:03:00,69.6,63.9,29.90,East,81,4.6,4.6,82,0.00,CLR,,0.20,WeatherDisplay:10.37,2013-05-10 15:03:00,
2013-05-10 10:08:00,69.7,63.6,29.90,NE,39,9.2,9.2,81,0.00,CLR,,0.20,WeatherDisplay:10.37,2013-05-10 15:08:00,
2013-05-10 10:13:00,70.1,64.0,29.90,ENE,74,6.9,6.9,81,0.00,CLR,,0.20,WeatherDisplay:10.37,2013-05-10 15:13:00,
2013-05-10 10:18:00,70.6,64.1,29.90,NE,56,8.0,8.0,80,0.00,CLR,,0.20,WeatherDisplay:10.37,2013-05-10 15:18:00,
2013-05-10 10:23:00,70.7,64.2,29.90,ENE,69,10.4,10.4,80,0.00,CLR,,0.20,WeatherDisplay:10.37,2013-05-10 15:23:00,
2013-05-10 10:28:00,70.7,64.2,29.89,NE,44,9.2,9.2,80,0.00,CLR,,0.20,WeatherDisplay:10.37,2013-05-10 15:28:00,
2013-05-10 10:33:00,70.9,64.1,29.89,East,85,8.0,8.0,79,0.00,CLR,,0.20,WeatherDisplay:10.37,2013-05-10 15:33:00,
2013-05-10 10:38:00,71.3,64.8,29.89,East,81,8.1,8.1,80,0.00,CLR,,0.20,WeatherDisplay:10.37,2013-05-10 15:38:00,
2013-05-10 10:43:00,71.3,64.8,29.89,East,86,4.6,4.6,80,0.00,CLR,,0.20,WeatherDisplay:10.37,2013-05-10 15:43:00,
2013-05-10 10:48:00,71.4,64.5,29.88,NE,36,4.6,4.6,79,0.00,CLR,,0.20,WeatherDisplay:10.37,2013-05-10 15:48:00,
2013-05-10 10:53:00,71.9,65.4,29.89,ESE,105,6.9,6.9,80,0.00,CLR,,0.20,WeatherDisplay:10.37,2013-05-10 15:53:00,
2013-05-10 10:58:00,72.2,65.3,29.89,ENE,75,10.4,10.4,79,0.00,CLR,,0.20,WeatherDisplay:10.37,2013-05-10 15:58:00,
2013-05-10 11:03:00,72.4,65.5,29.90,East,96,5.8,6.2,79,0.00,CLR,,0.20,WeatherDisplay:10.37,2013-05-10 16:03:00,
2013-05-10 11:08:00,72.7,66.2,29.89,NE,53,8.1,8.1,80,0.00,CLR,,0.20,WeatherDisplay:10.37,2013-05-10 16:08:00,
2013-05-10 11:13:00,73.5,66.6,29.89,ENE,77,9.0,9.0,79,0.00,CLR,,0.20,WeatherDisplay:10.37,2013-05-10 16:13:00,
2013-05-10 11:18:00,73.1,65.8,29.89,ENE,72,11.5,11.5,78,0.00,CLR,,0.20,WeatherDisplay:10.37,2013-05-10 16:18:00,
2013-05-10 11:23:00,73.6,66.7,29.90,ENE,72,5.8,5.8,79,0.00,CLR,,0.20,WeatherDisplay:10.37,2013-05-10 16:23:00,
2013-05-10 11:28:00,73.8,66.1,29.89,ENE,74,7.0,7.0,77,0.00,CLR,,0.20,WeatherDisplay:10.37,2013-05-10 16:28:00,
2013-05-10 11:33:00,74.4,67.5,29.90,NNE,32,5.0,5.0,79,0.00,CLR,,0.20,WeatherDisplay:10.37,2013-05-10 16:33:00,
2013-05-10 11:38:00,74.8,67.1,29.90,NNE,25,11.5,11.5,77,0.00,CLR,,0.20,WeatherDisplay:10.37,2013-05-10 16:38:00,
2013-05-10 11:43:00,75.1,67.0,29.90,North,8,3.5,4.9,76,0.00,CLR,,0.20,WeatherDisplay:10.37,2013-05-10 16:43:00,
2013-05-10 11:48:00,75.5,67.8,29.90,North,9,6.9,6.9,77,0.00,CLR,,0.20,WeatherDisplay:10.37,2013-05-10 16:48:00,
2013-05-10 11:53:00,75.8,66.9,29.89,NE,39,11.5,11.5,74,0.00,CLR,,0.20,WeatherDisplay:10.37,2013-05-10 16:53:00,
2013-05-10 11:58:00,75.7,66.8,29.90,North,8,10.4,10.4,74,0.00,CLR,,0.20,WeatherDisplay:10.37,2013-05-10 16:58:00,
2013-05-10 12:03:00,75.9,67.0,29.91,NNE,19,5.8,5.8,74,0.00,CLR,,0.20,WeatherDisplay:10.37,2013-05-10 17:03:00,
2013-05-10 12:08:00,76.0,67.1,29.91,North,358,5.8,5.8,74,0.00,CLR,,0.20,WeatherDisplay:10.37,2013-05-10 17:08:00,
2013-05-10 12:13:00,75.5,66.2,29.91,NE,53,8.1,8.1,73,0.00,CLR,,0.20,WeatherDisplay:10.37,2013-05-10 17:13:00,
2013-05-10 12:18:00,75.6,66.7,29.91,NE,44,6.9,6.9,74,0.00,CLR,,0.20,WeatherDisplay:10.37,2013-05-10 17:18:00,
2013-05-10 12:23:00,76.2,66.1,29.91,ENE,60,10.4,10.4,71,0.00,CLR,,0.20,WeatherDisplay:10.37,2013-05-10 17:23:00,
2013-05-10 12:28:00,76.6,67.3,29.91,NNE,22,10.4,10.4,73,0.00,CLR,,0.20,WeatherDisplay:10.37,2013-05-10 17:28:00,
2013-05-10 12:33:00,77.0,67.7,29.90,North,1,9.2,9.2,73,0.00,CLR,,0.20,WeatherDisplay:10.37,2013-05-10 17:33:00,
2013-05-10 12:38:00,77.9,67.7,29.90,ENE,58,6.9,6.9,71,0.00,CLR,,0.20,WeatherDisplay:10.37,2013-05-10 17:38:00,
2013-05-10 12:43:00,77.9,68.1,29.90,ENE,66,10.0,10.0,72,0.00,CLR,,0.20,WeatherDisplay:10.37,2013-05-10 17:43:00,
2013-05-10 12:48:00,77.4,66.8,29.91,ENE,72,8.1,8.1,70,0.00,CLR,,0.20,WeatherDisplay:10.37,2013-05-10 17:48:00,
2013-05-10 12:53:00,77.1,66.6,29.91,East,99,5.0,5.0,70,0.00,CLR,,0.20,WeatherDisplay:10.37,2013-05-10 17:53:00,
2013-05-10 12:58:00,77.4,67.3,29.91,NE,41,4.6,0.0,71,0.00,CLR,,0.20,WeatherDisplay:10.37,2013-05-10 17:58:00,
2013-05-10 13:03:00,77.9,67.7,29.90,NE,43,3.5,3.9,71,0.00,CLR,,0.20,WeatherDisplay:10.37,2013-05-10 18:03:00,
2013-05-10 13:08:00,78.0,67.4,29.90,NE,47,3.5,3.7,70,0.00,CLR,,0.20,WeatherDisplay:10.37,2013-05-10 18:08:00,
2013-05-10 13:13:00,78.1,67.1,29.90,East,85,5.8,5.8,69,0.00,CLR,,0.20,WeatherDisplay:10.37,2013-05-10 18:13:00,
2013-05-10 13:18:00,78.8,66.5,29.90,NE,39,5.8,5.8,66,0.00,CLR,,0.20,WeatherDisplay:10.37,2013-05-10 18:18:00,
2013-05-10 13:23:00,78.5,66.2,29.91,East,96,5.8,5.8,66,0.00,CLR,,0.20,WeatherDisplay:10.37,2013-05-10 18:23:00,
2013-05-10 13:28:00,79.0,67.1,29.91,East,79,6.9,6.9,67,0.00,CLR,,0.20,WeatherDisplay:10.37,2013-05-10 18:28:00,
2013-05-10 13:33:00,79.2,67.7,29.91,ENE,72,3.5,4.7,68,0.00,CLR,,0.20,WeatherDisplay:10.37,2013-05-10 18:33:00,
2013-05-10 13:38:00,79.2,67.3,29.91,NE,34,5.8,5.8,67,0.00,CLR,,0.20,WeatherDisplay:10.37,2013-05-10 18:38:00,
2013-05-10 13:43:00,79.1,67.2,29.90,ENE,77,6.9,6.9,67,0.00,CLR,,0.20,WeatherDisplay:10.37,2013-05-10 18:43:00,
2013-05-10 13:48:00,79.6,66.8,29.90,ENE,77,9.2,9.2,65,0.00,CLR,,0.20,WeatherDisplay:10.37,2013-05-10 18:48:00,
2013-05-10 13:53:00,79.1,66.8,29.90,East,87,8.1,8.1,66,0.00,CLR,,0.20,WeatherDisplay:10.37,2013-05-10 18:53:00,
2013-05-10 13:58:00,79.5,67.1,29.90,NE,47,10.4,10.4,66,0.00,CLR,,0.20,WeatherDisplay:10.37,2013-05-10 18:58:00,
2013-05-10 14:03:00,79.7,67.3,29.90,NE,36,5.8,5.8,66,0.00,CLR,,0.20,WeatherDisplay:10.37,2013-05-10 19:03:00,
2013-05-10 14:08:00,80.2,67.4,29.89,ENE,70,9.2,9.2,65,0.00,CLR,,0.20,WeatherDisplay:10.37,2013-05-10 19:08:00,
2013-05-10 14:13:00,80.2,66.9,29.89,ENE,78,11.5,11.5,64,0.00,CLR,,0.20,WeatherDisplay:10.37,2013-05-10 19:13:00,
2013-05-10 14:18:00,80.0,67.2,29.89,ENE,75,11.5,11.5,65,0.00,CLR,,0.20,WeatherDisplay:10.37,2013-05-10 19:18:00,
2013-05-10 14:23:00,79.9,66.6,29.89,ENE,77,9.2,9.2,64,0.00,CLR,,0.20,WeatherDisplay:10.37,2013-05-10 19:23:00,
2013-05-10 14:28:00,80.1,66.8,29.89,East,83,9.2,9.2,64,0.00,CLR,,0.20,WeatherDisplay:10.37,2013-05-10 19:28:00,
2013-05-10 14:33:00,80.1,66.4,29.89,ENE,60,9.2,9.2,63,0.00,CLR,,0.20,WeatherDisplay:10.37,2013-05-10 19:33:00,
2013-05-10 14:38:00,80.9,67.1,29.89,East,92,10.4,10.4,63,0.00,CLR,,0.20,WeatherDisplay:10.37,2013-05-10 19:38:00,
2013-05-10 14:43:00,80.0,67.6,29.89,ESE,120,3.5,3.5,66,0.00,CLR,,0.20,WeatherDisplay:10.37,2013-05-10 19:43:00,
2013-05-10 14:48:00,80.2,68.2,29.88,NE,54,7.0,7.0,67,0.00,CLR,,0.20,WeatherDisplay:10.37,2013-05-10 19:48:00,
2013-05-10 14:53:00,79.8,67.9,29.88,ENE,57,6.9,6.9,67,0.00,CLR,,0.20,WeatherDisplay:10.37,2013-05-10 19:53:00,
2013-05-10 14:58:00,79.4,67.9,29.88,ENE,75,6.9,6.9,68,0.00,CLR,,0.20,WeatherDisplay:10.37,2013-05-10 19:58:00,
2013-05-10 15:03:00,79.8,67.9,29.88,East,88,8.1,9.0,67,0.00,CLR,,0.20,WeatherDisplay:10.37,2013-05-10 20:03:00,
2013-05-10 15:08:00,79.4,68.3,29.88,ESE,103,10.4,10.4,69,0.00,CLR,,0.20,WeatherDisplay:10.37,2013-05-10 20:08:00,
2013-05-10 15:13:00,79.8,68.7,29.88,ESE,116,9.2,9.2,69,0.00,CLR,,0.20,WeatherDisplay:10.37,2013-05-10 20:13:00,
2013-05-10 15:18:00,80.3,69.6,29.88,East,81,9.2,9.2,70,0.00,CLR,,0.20,WeatherDisplay:10.37,2013-05-10 20:18:00,
2013-05-10 15:23:00,80.0,68.5,29.88,East,98,9.2,9.2,68,0.00,CLR,,0.20,WeatherDisplay:10.37,2013-05-10 20:23:00,
2013-05-10 15:28:00,79.9,68.4,29.88,ESE,117,9.2,9.2,68,0.00,CLR,,0.20,WeatherDisplay:10.37,2013-05-10 20:28:00,
2013-05-10 15:33:00,80.5,68.1,29.88,East,82,8.1,8.1,66,0.00,CLR,,0.20,WeatherDisplay:10.37,2013-05-10 20:33:00,
2013-05-10 15:38:00,80.2,68.2,29.87,ENE,65,9.2,9.2,67,0.00,CLR,,0.20,WeatherDisplay:10.37,2013-05-10 20:38:00,
2013-05-10 15:43:00,80.1,68.2,29.87,ESE,120,12.7,12.7,67,0.00,CLR,,0.20,WeatherDisplay:10.37,2013-05-10 20:43:00,
2013-05-10 15:48:00,80.2,68.2,29.87,ENE,74,11.5,11.5,67,0.00,CLR,,0.20,WeatherDisplay:10.37,2013-05-10 20:48:00,
2013-05-10 15:53:00,80.3,68.3,29.87,East,89,15.0,15.0,67,0.00,CLR,,0.20,WeatherDisplay:10.37,2013-05-10 20:53:00,
2013-05-10 15:58:00,80.1,67.7,29.86,East,98,14.0,14.0,66,0.00,CLR,,0.20,WeatherDisplay:10.37,2013-05-10 20:58:00,
2013-05-10 16:03:00,79.9,68.0,29.86,ESE,121,11.5,11.5,67,0.00,CLR,,0.20,WeatherDisplay:10.37,2013-05-10 21:03:00,
2013-05-10 16:08:00,79.9,67.5,29.86,ENE,68,9.2,9.2,66,0.00,CLR,,0.20,WeatherDisplay:10.37,2013-05-10 21:08:00,
2013-05-10 16:13:00,80.5,68.1,29.86,East,88,10.4,10.4,66,0.00,CLR,,0.20,WeatherDisplay:10.37,2013-05-10 21:13:00,
2013-05-10 16:18:00,80.7,67.8,29.85,ENE,71,10.0,10.0,65,0.00,CLR,,0.20,WeatherDisplay:10.37,2013-05-10 21:18:00,
2013-05-10 16:23:00,80.7,67.4,29.85,ESE,114,11.5,11.5,64,0.00,CLR,,0.20,WeatherDisplay:10.37,2013-05-10 21:23:00,
2013-05-10 16:28:00,80.9,67.1,29.85,ENE,77,9.2,9.2,63,0.00,CLR,,0.20,WeatherDisplay:10.37,2013-05-10 21:28:00,
2013-05-10 16:33:00,81.1,65.4,29.85,ENE,75,8.1,8.1,59,0.00,CLR,,0.20,WeatherDisplay:10.37,2013-05-10 21:33:00,
2013-05-10 16:38:00,81.0,64.8,29.85,East,79,10.4,10.4,58,0.00,CLR,,0.20,WeatherDisplay:10.37,2013-05-10 21:38:00,
2013-05-10 16:43:00,81.0,65.3,29.84,ENE,72,11.5,11.5,59,0.00,CLR,,0.20,WeatherDisplay:10.37,2013-05-10 21:43:00,
2013-05-10 16:48:00,80.9,65.2,29.85,SE,138,11.5,11.5,59,0.00,CLR,,0.20,WeatherDisplay:10.37,2013-05-10 21:48:00,
2013-05-10 16:53:00,80.7,64.1,29.85,East,82,10.4,10.4,57,0.00,CLR,,0.20,WeatherDisplay:10.37,2013-05-10 21:53:00,
2013-05-10 16:58:00,80.6,62.4,29.85,ENE,68,11.5,11.5,54,0.00,CLR,,0.20,WeatherDisplay:10.37,2013-05-10 21:58:00,
2013-05-10 17:03:00,80.5,62.3,29.84,ENE,77,9.2,9.2,54,0.00,CLR,,0.20,WeatherDisplay:10.37,2013-05-10 22:03:00,
2013-05-10 17:08:00,80.6,62.4,29.84,ENE,72,9.0,9.0,54,0.00,CLR,,0.20,WeatherDisplay:10.37,2013-05-10 22:08:00,
2013-05-10 17:13:00,80.4,63.3,29.84,ENE,74,6.9,6.9,56,0.00,CLR,,0.20,WeatherDisplay:10.37,2013-05-10 22:13:00,
2013-05-10 17:18:00,80.3,62.1,29.84,ENE,75,9.2,9.2,54,0.00,CLR,,0.20,WeatherDisplay:10.37,2013-05-10 22:18:00,
2013-05-10 17:23:00,80.1,61.4,29.84,ENE,68,9.0,9.0,53,0.00,CLR,,0.20,WeatherDisplay:10.37,2013-05-10 22:23:00,
2013-05-10 17:28:00,80.1,60.9,29.84,East,98,9.2,9.2,52,0.00,CLR,,0.20,WeatherDisplay:10.37,2013-05-10 22:28:00,
2013-05-10 17:33:00,80.1,61.4,29.84,ENE,77,9.2,9.2,53,0.00,CLR,,0.20,WeatherDisplay:10.37,2013-05-10 22:33:00,
2013-05-10 17:38:00,80.1,61.4,29.84,East,93,8.1,8.1,53,0.00,CLR,,0.20,WeatherDisplay:10.37,2013-05-10 22:38:00,
2013-05-10 17:43:00,80.0,61.3,29.83,ENE,66,9.2,9.2,53,0.00,CLR,,0.20,WeatherDisplay:10.37,2013-05-10 22:43:00,
2013-05-10 17:48:00,79.9,61.2,29.84,ENE,77,3.5,3.7,53,0.00,CLR,,0.20,WeatherDisplay:10.37,2013-05-10 22:48:00,
2013-05-10 17:53:00,79.9,61.2,29.84,ENE,58,5.8,5.8,53,0.00,CLR,,0.20,WeatherDisplay:10.37,2013-05-10 22:53:00,
2013-05-10 17:58:00,79.9,61.8,29.83,ENE,77,5.8,5.8,54,0.00,CLR,,0.20,WeatherDisplay:10.37,2013-05-10 22:58:00,
2013-05-10 18:03:00,79.8,62.7,29.83,East,79,6.9,6.9,56,0.00,CLR,,0.20,WeatherDisplay:10.37,2013-05-10 23:03:00,
2013-05-10 18:08:00,79.7,63.1,29.83,East,82,6.9,6.9,57,0.00,CLR,,0.20,WeatherDisplay:10.37,2013-05-10 23:08:00,
2013-05-10 18:13:00,79.5,63.4,29.84,ENE,63,3.5,3.5,58,0.00,CLR,,0.20,WeatherDisplay:10.37,2013-05-10 23:13:00,
2013-05-10 18:18:00,79.2,63.6,29.84,East,85,5.8,5.8,59,0.00,CLR,,0.20,WeatherDisplay:10.37,2013-05-10 23:18:00,
2013-05-10 18:23:00,78.8,63.7,29.84,ENE,78,8.1,8.1,60,0.00,CLR,,0.20,WeatherDisplay:10.37,2013-05-10 23:23:00,
2013-05-10 18:28:00,78.6,64.0,29.85,ENE,78,3.5,3.5,61,0.00,CLR,,0.20,WeatherDisplay:10.37,2013-05-10 23:28:00,
2013-05-10 18:33:00,78.3,64.2,29.85,ENE,63,5.8,5.8,62,0.00,CLR,,0.20,WeatherDisplay:10.37,2013-05-10 23:33:00,
2013-05-10 18:38:00,78.1,64.0,29.84,East,89,6.9,6.9,62,0.00,CLR,,0.20,WeatherDisplay:10.37,2013-05-10 23:38:00,
2013-05-10 18:43:00,77.9,63.8,29.84,ENE,71,8.1,8.1,62,0.00,CLR,,0.20,WeatherDisplay:10.37,2013-05-10 23:43:00,
2013-05-10 18:48:00,77.7,64.1,29.84,NE,56,5.8,5.8,63,0.00,CLR,,0.20,WeatherDisplay:10.37,2013-05-10 23:48:00,
2013-05-10 18:53:00,77.4,64.3,29.85,East,98,4.6,4.6,64,0.00,CLR,,0.20,WeatherDisplay:10.37,2013-05-10 23:53:00,
2013-05-10 18:58:00,77.2,64.5,29.85,ENE,74,3.5,3.5,65,0.00,CLR,,0.20,WeatherDisplay:10.37,2013-05-10 23:58:00,
2013-05-10 19:03:00,77.0,64.8,29.84,ENE,64,3.5,3.5,66,0.00,CLR,,0.20,WeatherDisplay:10.37,2013-05-11 00:03:00,
2013-05-10 19:08:00,76.8,64.6,29.84,ENE,76,3.5,3.5,66,0.00,CLR,,0.20,WeatherDisplay:10.37,2013-05-11 00:08:00,
2013-05-10 19:13:00,76.6,64.8,29.85,ESE,102,0.0,0.0,67,0.00,CLR,,0.20,WeatherDisplay:10.37,2013-05-11 00:13:00,
2013-05-10 19:18:00,76.5,65.1,29.86,East,98,0.0,0.0,68,0.00,CLR,,0.20,WeatherDisplay:10.37,2013-05-11 00:18:00,
2013-05-10 19:23:00,76.2,64.9,29.86,ESE,111,0.0,0.0,68,0.00,CLR,,0.20,WeatherDisplay:10.37,2013-05-11 00:23:00,
2013-05-10 19:28:00,76.1,65.6,29.87,SE,127,0.0,0.0,70,0.00,CLR,,0.20,WeatherDisplay:10.37,2013-05-11 00:28:00,
2013-05-10 19:33:00,75.9,65.4,29.87,SW,217,0.0,0.0,70,0.00,CLR,,0.20,WeatherDisplay:10.37,2013-05-11 00:33:00,
2013-05-10 19:38:00,75.7,65.2,29.88,SW,217,0.0,0.0,70,0.00,CLR,,0.20,WeatherDisplay:10.37,2013-05-11 00:38:00,
2013-05-10 19:43:00,75.5,65.4,29.89,South,183,0.0,0.0,71,0.00,CLR,,0.20,WeatherDisplay:10.37,2013-05-11 00:43:00,
2013-05-10 19:48:00,75.1,66.2,29.90,WSW,250,6.9,6.9,74,0.00,CLR,,0.20,WeatherDisplay:10.37,2013-05-11 00:48:00,
2013-05-10 19:53:00,74.6,66.9,29.91,SW,218,4.6,4.6,77,0.00,CLR,,0.20,WeatherDisplay:10.37,2013-05-11 00:53:00,
2013-05-10 19:58:00,74.2,66.9,29.92,WSW,249,8.1,8.1,78,0.00,CLR,,0.20,WeatherDisplay:10.37,2013-05-11 00:58:00,
2013-05-10 20:03:00,73.9,67.0,29.92,SW,226,9.2,9.2,79,0.00,CLR,,0.20,WeatherDisplay:10.37,2013-05-11 01:03:00,
2013-05-10 20:08:00,73.8,66.9,29.93,SW,228,10.4,10.4,79,0.00,CLR,,0.20,WeatherDisplay:10.37,2013-05-11 01:08:00,
2013-05-10 20:13:00,73.3,67.1,29.94,WSW,255,9.2,9.2,81,0.00,CLR,,0.20,WeatherDisplay:10.37,2013-05-11 01:13:00,
2013-05-10 20:18:00,73.0,67.2,29.94,WNW,291,4.6,4.6,82,0.00,CLR,,0.20,WeatherDisplay:10.37,2013-05-11 01:18:00,
2013-05-10 20:23:00,72.8,67.3,29.95,NNW,330,3.5,3.5,83,0.01,RA,,0.21,WeatherDisplay:10.37,2013-05-11 01:23:00,
2013-05-10 20:28:00,72.3,67.5,29.95,NNW,339,0.0,0.1,85,0.01,RA,,0.21,WeatherDisplay:10.37,2013-05-11 01:28:00,
2013-05-10 20:33:00,71.9,67.5,29.95,NNE,25,0.0,0.4,86,0.02,RA,,0.22,WeatherDisplay:10.37,2013-05-11 01:33:00,
2013-05-10 20:38:00,71.4,67.7,29.94,NE,56,5.8,5.8,88,0.02,RA,,0.22,WeatherDisplay:10.37,2013-05-11 01:38:00,
2013-05-10 20:43:00,71.0,67.3,29.94,NNW,328,3.5,3.5,88,0.02,CLR,,0.22,WeatherDisplay:10.37,2013-05-11 01:43:00,
2013-05-10 20:48:00,70.8,67.4,29.96,NNW,340,2.3,2.3,89,0.02,CLR,,0.22,WeatherDisplay:10.37,2013-05-11 01:48:00,
2013-05-10 20:53:00,70.7,67.3,29.98,East,90,6.9,6.9,89,0.02,CLR,,0.22,WeatherDisplay:10.37,2013-05-11 01:53:00,
2013-05-10 20:58:00,70.1,65.4,29.98,NNW,333,12.7,12.7,85,0.02,CLR,,0.22,WeatherDisplay:10.37,2013-05-11 01:58:00,
2013-05-10 21:03:00,69.3,64.9,29.97,North,9,17.3,17.3,86,0.02,CLR,,0.22,WeatherDisplay:10.37,2013-05-11 02:03:00,
2013-05-10 21:08:00,68.7,64.7,29.96,SE,126,13.8,13.8,87,0.02,CLR,,0.22,WeatherDisplay:10.37,2013-05-11 02:08:00,
2013-05-10 21:13:00,68.1,64.4,29.96,North,6,12.7,12.7,88,0.02,CLR,,0.22,WeatherDisplay:10.37,2013-05-11 02:13:00,
2013-05-10 21:18:00,67.9,64.2,29.97,NNW,330,10.4,10.4,88,0.02,CLR,,0.22,WeatherDisplay:10.37,2013-05-11 02:18:00,
2013-05-10 21:23:00,67.7,64.3,29.96,North,355,10.4,10.4,89,0.01,CLR,,0.22,WeatherDisplay:10.37,2013-05-11 02:23:00,
2013-05-10 21:28:00,67.5,64.1,29.96,NNE,27,9.2,9.2,89,0.01,CLR,,0.22,WeatherDisplay:10.37,2013-05-11 02:28:00,
2013-05-10 21:33:00,67.5,64.1,29.97,NNW,333,13.8,13.8,89,0.00,CLR,,0.22,WeatherDisplay:10.37,2013-05-11 02:33:00,
2013-05-10 21:38:00,67.5,64.1,29.98,North,11,9.2,9.2,89,0.00,CLR,,0.22,WeatherDisplay:10.37,2013-05-11 02:38:00,
2013-05-10 21:43:00,67.5,64.1,29.97,NNE,13,8.1,8.1,89,0.00,CLR,,0.22,WeatherDisplay:10.37,2013-05-11 02:43:00,
2013-05-10 21:48:00,67.5,64.1,29.98,North,1,8.1,8.1,89,0.00,CLR,,0.22,WeatherDisplay:10.37,2013-05-11 02:48:00,
2013-05-10 21:53:00,67.3,63.6,29.98,North,358,12.0,12.0,88,0.00,CLR,,0.22,WeatherDisplay:10.37,2013-05-11 02:53:00,
2013-05-10 21:58:00,67.3,63.6,29.98,NNE,25,10.4,10.4,88,0.00,CLR,,0.22,WeatherDisplay:10.37,2013-05-11 02:58:00,
2013-05-10 22:03:00,67.1,63.4,29.98,NNE,25,8.1,8.1,88,0.00,CLR,,0.22,WeatherDisplay:10.37,2013-05-11 03:03:00,
2013-05-10 22:08:00,67.0,63.6,29.98,NNE,15,9.2,9.2,89,0.00,CLR,,0.22,WeatherDisplay:10.37,2013-05-11 03:08:00,
2013-05-10 22:13:00,66.9,63.6,29.99,NE,51,11.5,11.5,89,0.00,CLR,,0.22,WeatherDisplay:10.37,2013-05-11 03:13:00,
2013-05-10 22:18:00,66.8,63.8,29.98,NNW,340,11.5,11.5,90,0.00,CLR,,0.22,WeatherDisplay:10.37,2013-05-11 03:18:00,
2013-05-10 22:23:00,66.6,63.6,29.98,NW,318,9.2,9.2,90,0.00,CLR,,0.22,WeatherDisplay:10.37,2013-05-11 03:23:00,
2013-05-10 22:28:00,66.4,63.7,29.98,NNE,23,9.2,9.2,91,0.00,CLR,,0.22,WeatherDisplay:10.37,2013-05-11 03:28:00,
2013-05-10 22:33:00,66.3,63.6,29.98,North,8,10.4,10.4,91,0.00,CLR,,0.22,WeatherDisplay:10.37,2013-05-11 03:33:00,
2013-05-10 22:38:00,66.1,63.4,29.98,North,351,9.2,9.2,91,0.00,CLR,,0.22,WeatherDisplay:10.37,2013-05-11 03:38:00,
2013-05-10 22:43:00,66.0,63.3,29.97,NNE,17,6.9,6.9,91,0.00,CLR,,0.22,WeatherDisplay:10.37,2013-05-11 03:43:00,
2013-05-10 22:48:00,65.9,63.2,29.96,NE,37,11.5,11.5,91,0.00,CLR,,0.22,WeatherDisplay:10.37,2013-05-11 03:48:00,
2013-05-10 22:53:00,65.8,63.4,29.96,NNE,33,11.5,11.5,92,0.00,CLR,,0.22,WeatherDisplay:10.37,2013-05-11 03:53:00,
2013-05-10 22:58:00,65.8,63.1,29.97,NE,56,9.2,9.2,91,0.00,CLR,,0.22,WeatherDisplay:10.37,2013-05-11 03:58:00,
2013-05-10 23:01:00,65.8,63.1,29.97,ENE,75,6.9,6.9,91,0.00,CLR,,0.22,WeatherDisplay:10.37,2013-05-11 04:01:00,
2013-05-10 23:06:00,65.8,63.1,29.97,NE,43,9.2,9.2,91,0.00,CLR,,0.22,WeatherDisplay:10.37,2013-05-11 04:06:00,
2013-05-10 23:11:00,65.8,63.1,29.97,NNE,13,6.9,6.9,91,0.00,CLR,,0.22,WeatherDisplay:10.37,2013-05-11 04:11:00,
2013-05-10 23:16:00,65.7,63.3,29.97,NE,47,8.1,8.1,92,0.00,CLR,,0.22,WeatherDisplay:10.37,2013-05-11 04:16:00,
2013-05-10 23:21:00,65.6,63.2,29.97,NE,36,9.2,9.2,92,0.00,CLR,,0.22,WeatherDisplay:10.37,2013-05-11 04:21:00,
2013-05-10 23:26:00,65.5,63.1,29.97,NE,39,8.1,8.1,92,0.00,CLR,,0.22,WeatherDisplay:10.37,2013-05-11 04:26:00,
2013-05-10 23:31:00,65.4,63.0,29.96,ENE,60,11.0,11.0,92,0.00,CLR,,0.22,WeatherDisplay:10.37,2013-05-11 04:31:00,
2013-05-10 23:36:00,65.3,62.9,29.96,North,349,9.2,9.2,92,0.00,CLR,,0.22,WeatherDisplay:10.37,2013-05-11 04:36:00,
2013-05-10 23:41:00,65.3,62.9,29.96,NE,36,11.5,11.5,92,0.00,CLR,,0.22,WeatherDisplay:10.37,2013-05-11 04:41:00,
2013-05-10 23:46:00,65.2,62.8,29.95,NNW,339,6.9,6.9,92,0.00,CLR,,0.22,WeatherDisplay:10.37,2013-05-11 04:46:00,
2013-05-10 23:51:00,65.2,62.5,29.96,ENE,60,9.2,9.2,91,0.00,CLR,,0.22,WeatherDisplay:10.37,2013-05-11 04:51:00,
2013-05-10 23:56:00,65.1,62.4,29.97,ENE,63,9.2,9.2,91,0.00,CLR,,0.22,WeatherDisplay:10.37,2013-05-11 04:56:00,